Regional Weather Roundup
Issued by NWS

Home | Current Version | Previous Version | Graphics & Text | Print | Product List | Glossary On
Versions: 1 2 3 4 5 6 7 8 9 10 11 12 13 14 15 16 17 18 19 20 21 22 23 24 25 26 27 28 29 30 31 32 33 34 35 36 37 38 39 40 41 42 43 44 45 46 47 48 49 50
464
ASUS43 KBIS 251210
RWRND

NORTH DAKOTA REGIONAL WEATHER ROUNDUP
NATIONAL WEATHER SERVICE BISMARCK ND
600 AM CST SAT FEB 25 2017

NOTE: "FAIR" INDICATES FEW OR NO CLOUDS BELOW 12,000 FEET WITH NO
SIGNIFICANT WEATHER AND/OR OBSTRUCTIONS TO VISIBILITY.


NDZ001>003-009>011-017-251300-
NORTHWEST NORTH DAKOTA

CITY           SKY/WX    TMP DP  RH WIND       PRES   REMARKS
WILLISTON      MOCLDY    18  17  96 N6        29.94S WCI  10
6HR MIN TEMP:  16; 6HR MAX TEMP:  25; 6HR PCP: TRACE;

MINOT          CLOUDY    22  19  89 W15       29.89F WCI   9
MINOT AFB      CLOUDY    22  20  92 NW18      29.89F WCI   7
$$

NDZ018>021-031>035-040>046-251300-
SOUTHWEST NORTH DAKOTA

CITY           SKY/WX    TMP DP  RH WIND       PRES   REMARKS
BISMARCK       CLOUDY    20  16  84 SW6       29.94F WCI  12
6HR MIN TEMP:  13; 6HR MAX TEMP:  21;

DICKINSON      CLOUDY    21  15  78 N8        29.86F WCI  11
GARRISON         N/A     22  19  89 W8        29.89F WCI  12
6HR MIN TEMP:  13; 6HR MAX TEMP:  22; 6HR PCP:  0.01;

HETTINGER ARPT CLOUDY    18  14  84 W3        29.91F
$$

NDZ004>008-012>016-024-026-027-054-251300-
NORTHEAST NORTH DAKOTA

CITY           SKY/WX    TMP DP  RH WIND       PRES   REMARKS
GRAND FORKS    CLOUDY    20  13  74 S8        29.93F WCI  10
GRND FRKS AFB  CLOUDY    20  15  81 SW8       29.92F WCI  11
DEVILS LAKE    CLOUDY    20  16  84 SW13      29.89F WCI   7
$$

NDZ022-023-025-028>030-036>039-047>053-251300-
SOUTHEAST NORTH DAKOTA

CITY           SKY/WX    TMP DP  RH WIND       PRES   REMARKS
FARGO          CLOUDY    18  15  88 S3        29.98F
6HR MIN TEMP:  14; 6HR MAX TEMP:  18;

JAMESTOWN      CLOUDY    19  14  81 SW9       29.92F WCI   8
$$





USA.gov is the U.S. government's official web portal to all federal, state and local government web resources and services.